{"data":{"norad_id":60301,"intl_designator":"2024-133A","name":"STARLINK-11147 [DTC]","alt_names":[],"object_type":"PAYLOAD","status":"ACTIVE","operator":null,"country":"US","launch_date":"2024-07-28","launch_site_code":"AFWTR","launch_vehicle":null,"mission":null,"orbit_class":"UNKNOWN","rcs_meters":null,"size_class":null,"mass_kg":null,"dimensions":null,"purposes":["comms"],"wikipedia_slug":null,"has_3d_model":false,"image_url":null,"decayed_at":null,"tle_current":{"epoch":"2026-09-20T06:41:50.942112Z","epoch_age_seconds":204691,"freshness":"STALE","line1":"1 60301U 24133A   26263.27906183 -.00000779  00000+0 -15742-5 0  9996","line2":"2 60301  53.1599 267.1859 0001024  76.4368 283.6764 15.69704101124291","mean_motion":15.69704101,"eccentricity":0.0001024,"inclination_deg":53.1599,"raan_deg":267.1859,"arg_perigee_deg":76.4368,"mean_anomaly_deg":283.6764,"bstar":-1.5742e-6,"rev_number":12429,"period_min":91.737034966184,"perigee_km":359.053672176,"apogee_km":360.43359012926,"semimajor_km":6737.8806311526,"source":"CELESTRAK","updated_at":"2026-09-22T09:00:49.196250Z"}}}